Time,TemperatureF,DewpointF,PressureIn,WindDirection,WindDirectionDegrees,WindSpeedMPH,WindSpeedGustMPH,Humidity,HourlyPrecipIn,Conditions,Clouds,dailyrainin,SoftwareType,DateUTC
2013-08-07 00:02:00,70.4,66.3,29.86,SE,132,2.0,3.0,87,0.00,,,0.00,Wunderground v.1.15,2013-08-07 04:02:00,
2013-08-07 00:03:00,70.4,66.3,29.86,SE,132,2.0,3.0,87,0.00,,,0.00,Wunderground v.1.15,2013-08-07 04:03:00,
2013-08-07 00:06:00,70.3,66.2,29.86,SE,132,2.0,3.0,87,0.00,,,0.00,Wunderground v.1.15,2013-08-07 04:06:00,
2013-08-07 00:11:00,70.2,66.1,29.86,SE,132,2.0,2.0,87,0.00,,,0.00,Wunderground v.1.15,2013-08-07 04:11:00,
2013-08-07 00:13:00,70.2,66.1,29.86,SE,132,1.0,2.0,87,0.00,,,0.00,Wunderground v.1.15,2013-08-07 04:13:00,
2013-08-07 00:19:00,70.1,66.0,29.86,SE,132,1.0,3.0,87,0.00,,,0.00,Wunderground v.1.15,2013-08-07 04:19:00,
2013-08-07 00:23:00,70.0,66.0,29.86,SE,132,2.0,4.0,87,0.00,,,0.00,Wunderground v.1.15,2013-08-07 04:23:00,
2013-08-07 00:28:00,70.0,66.0,29.86,SE,132,2.0,4.0,87,0.00,,,0.00,Wunderground v.1.15,2013-08-07 04:28:00,
2013-08-07 00:33:00,69.9,66.2,29.86,SE,132,3.0,3.0,88,0.00,,,0.00,Wunderground v.1.15,2013-08-07 04:33:00,
2013-08-07 00:39:00,69.8,66.1,29.86,SE,132,2.0,3.0,88,0.00,,,0.00,Wunderground v.1.15,2013-08-07 04:39:00,
2013-08-07 00:44:00,69.7,66.0,29.86,SE,132,2.0,3.0,88,0.00,,,0.00,Wunderground v.1.15,2013-08-07 04:44:00,
2013-08-07 00:49:00,69.7,66.0,29.86,SE,132,2.0,3.0,88,0.00,,,0.00,Wunderground v.1.15,2013-08-07 04:49:00,
2013-08-07 00:54:00,69.5,65.8,29.86,SE,132,1.0,2.0,88,0.00,,,0.00,Wunderground v.1.15,2013-08-07 04:54:00,
2013-08-07 01:00:00,69.4,65.7,29.86,SE,132,0.0,0.0,88,0.00,,,0.00,Wunderground v.1.15,2013-08-07 05:00:00,
2013-08-07 01:06:00,69.2,65.5,29.86,SE,132,0.0,1.0,88,0.00,,,0.00,Wunderground v.1.15,2013-08-07 05:06:00,
2013-08-07 01:12:00,69.0,65.6,29.86,SE,132,0.0,2.0,89,0.00,,,0.00,Wunderground v.1.15,2013-08-07 05:12:00,
2013-08-07 01:18:00,69.0,65.6,29.86,SE,132,1.0,2.0,89,0.00,,,0.00,Wunderground v.1.15,2013-08-07 05:18:00,
2013-08-07 01:23:00,68.9,65.5,29.86,SE,132,1.0,1.0,89,0.00,,,0.00,Wunderground v.1.15,2013-08-07 05:23:00,
2013-08-07 01:28:00,68.8,65.4,29.86,SE,132,1.0,1.0,89,0.00,,,0.00,Wunderground v.1.15,2013-08-07 05:28:00,
2013-08-07 01:33:00,68.7,65.3,29.85,SE,132,0.0,0.0,89,0.00,,,0.00,Wunderground v.1.15,2013-08-07 05:33:00,
2013-08-07 01:39:00,68.5,65.4,29.85,SE,132,0.0,0.0,90,0.00,,,0.00,Wunderground v.1.15,2013-08-07 05:39:00,
2013-08-07 01:44:00,68.3,65.3,29.85,SE,132,0.0,2.0,90,0.00,,,0.00,Wunderground v.1.15,2013-08-07 05:44:00,
2013-08-07 01:49:00,68.3,65.3,29.85,SE,132,0.0,2.0,90,0.00,,,0.00,Wunderground v.1.15,2013-08-07 05:49:00,
2013-08-07 01:54:00,68.2,65.2,29.85,SE,132,1.0,2.0,90,0.00,,,0.00,Wunderground v.1.15,2013-08-07 05:54:00,
2013-08-07 02:00:00,68.2,65.2,29.84,SE,132,1.0,1.0,90,0.00,,,0.00,Wunderground v.1.15,2013-08-07 06:00:00,
2013-08-07 02:05:00,68.2,65.2,29.84,SE,132,2.0,5.0,90,0.00,,,0.00,Wunderground v.1.15,2013-08-07 06:05:00,
2013-08-07 02:10:00,68.3,65.3,29.85,SE,132,3.0,3.0,90,0.00,,,0.00,Wunderground v.1.15,2013-08-07 06:10:00,
2013-08-07 02:16:00,68.3,65.3,29.85,SE,132,3.0,3.0,90,0.00,,,0.00,Wunderground v.1.15,2013-08-07 06:16:00,
2013-08-07 02:21:00,68.4,65.4,29.85,SE,132,2.0,3.0,90,0.00,,,0.00,Wunderground v.1.15,2013-08-07 06:21:00,
2013-08-07 02:26:00,68.4,65.4,29.84,SE,132,2.0,3.0,90,0.00,,,0.00,Wunderground v.1.15,2013-08-07 06:26:00,
2013-08-07 02:32:00,68.3,65.3,29.84,SE,132,2.0,2.0,90,0.00,,,0.00,Wunderground v.1.15,2013-08-07 06:32:00,
2013-08-07 02:37:00,68.2,65.2,29.84,SSE,155,3.0,5.0,90,0.00,,,0.00,Wunderground v.1.15,2013-08-07 06:37:00,
2013-08-07 02:43:00,68.2,65.2,29.84,South,169,3.0,4.0,90,0.00,,,0.00,Wunderground v.1.15,2013-08-07 06:43:00,
2013-08-07 02:48:00,68.1,65.1,29.84,South,169,3.0,4.0,90,0.00,,,0.00,Wunderground v.1.15,2013-08-07 06:48:00,
2013-08-07 02:53:00,68.0,65.0,29.84,South,169,2.0,2.0,90,0.00,,,0.00,Wunderground v.1.15,2013-08-07 06:53:00,
2013-08-07 02:59:00,67.9,64.9,29.84,South,169,1.0,2.0,90,0.00,,,0.00,Wunderground v.1.15,2013-08-07 06:59:00,
2013-08-07 03:04:00,67.8,65.1,29.85,South,169,1.0,3.0,91,0.00,,,0.00,Wunderground v.1.15,2013-08-07 07:04:00,
2013-08-07 03:10:00,67.7,65.0,29.84,South,169,1.0,2.0,91,0.00,,,0.00,Wunderground v.1.15,2013-08-07 07:10:00,
2013-08-07 03:15:00,67.6,64.9,29.84,South,169,2.0,2.0,91,0.00,,,0.00,Wunderground v.1.15,2013-08-07 07:15:00,
2013-08-07 03:20:00,67.5,64.8,29.84,South,169,1.0,1.0,91,0.00,,,0.00,Wunderground v.1.15,2013-08-07 07:20:00,
2013-08-07 03:25:00,67.4,64.7,29.84,South,169,1.0,1.0,91,0.00,,,0.00,Wunderground v.1.15,2013-08-07 07:25:00,
2013-08-07 03:31:00,67.3,64.9,29.84,South,169,1.0,2.0,92,0.00,,,0.00,Wunderground v.1.15,2013-08-07 07:31:00,
2013-08-07 03:36:00,67.2,64.8,29.84,South,169,1.0,2.0,92,0.00,,,0.00,Wunderground v.1.15,2013-08-07 07:36:00,
2013-08-07 03:42:00,67.1,64.7,29.84,South,169,1.0,2.0,92,0.00,,,0.00,Wunderground v.1.15,2013-08-07 07:42:00,
2013-08-07 03:47:00,67.0,64.6,29.84,South,169,1.0,3.0,92,0.00,,,0.00,Wunderground v.1.15,2013-08-07 07:47:00,
2013-08-07 03:52:00,67.0,64.6,29.83,South,169,3.0,4.0,92,0.00,,,0.00,Wunderground v.1.15,2013-08-07 07:52:00,
2013-08-07 03:58:00,66.9,64.5,29.83,South,169,4.0,5.0,92,0.00,,,0.00,Wunderground v.1.15,2013-08-07 07:58:00,
2013-08-07 04:03:00,66.8,64.4,29.83,South,169,3.0,3.0,92,0.00,,,0.00,Wunderground v.1.15,2013-08-07 08:03:00,
2013-08-07 04:08:00,66.7,64.6,29.82,South,169,2.0,3.0,93,0.00,,,0.00,Wunderground v.1.15,2013-08-07 08:08:00,
2013-08-07 04:13:00,66.7,64.6,29.83,South,169,1.0,2.0,93,0.00,,,0.00,Wunderground v.1.15,2013-08-07 08:13:00,
2013-08-07 04:19:00,66.6,64.5,29.83,South,169,1.0,2.0,93,0.00,,,0.00,Wunderground v.1.15,2013-08-07 08:19:00,
2013-08-07 04:24:00,66.6,64.5,29.83,South,169,1.0,3.0,93,0.00,,,0.00,Wunderground v.1.15,2013-08-07 08:24:00,
2013-08-07 04:29:00,66.6,64.5,29.82,South,169,2.0,4.0,93,0.00,,,0.00,Wunderground v.1.15,2013-08-07 08:29:00,
2013-08-07 04:34:00,66.6,64.5,29.82,South,169,2.0,5.0,93,0.00,,,0.00,Wunderground v.1.15,2013-08-07 08:34:00,
2013-08-07 04:40:00,66.6,64.5,29.82,South,171,3.0,4.0,93,0.00,,,0.00,Wunderground v.1.15,2013-08-07 08:40:00,
2013-08-07 04:45:00,66.6,64.5,29.82,South,173,4.0,5.0,93,0.00,,,0.00,Wunderground v.1.15,2013-08-07 08:45:00,
2013-08-07 04:50:00,66.6,64.5,29.82,South,173,3.0,4.0,93,0.00,,,0.00,Wunderground v.1.15,2013-08-07 08:50:00,
2013-08-07 04:56:00,66.6,64.8,29.82,South,174,3.0,5.0,94,0.00,,,0.00,Wunderground v.1.15,2013-08-07 08:56:00,
2013-08-07 05:02:00,66.6,64.8,29.82,South,186,4.0,6.0,94,0.00,,,0.00,Wunderground v.1.15,2013-08-07 09:02:00,
2013-08-07 05:08:00,66.5,64.4,29.82,South,188,4.0,6.0,93,0.00,,,0.00,Wunderground v.1.15,2013-08-07 09:08:00,
2013-08-07 05:13:00,66.5,64.7,29.82,South,175,4.0,5.0,94,0.00,,,0.00,Wunderground v.1.15,2013-08-07 09:13:00,
2013-08-07 05:18:00,66.4,64.6,29.82,South,175,4.0,5.0,94,0.00,,,0.00,Wunderground v.1.15,2013-08-07 09:18:00,
2013-08-07 05:23:00,66.4,64.6,29.82,South,175,2.0,3.0,94,0.00,,,0.00,Wunderground v.1.15,2013-08-07 09:23:00,
2013-08-07 05:29:00,66.4,64.6,29.82,South,175,2.0,3.0,94,0.00,,,0.00,Wunderground v.1.15,2013-08-07 09:29:00,
2013-08-07 05:34:00,66.4,64.6,29.82,South,175,2.0,2.0,94,0.00,,,0.00,Wunderground v.1.15,2013-08-07 09:34:00,
2013-08-07 05:39:00,66.4,64.6,29.82,South,175,1.0,3.0,94,0.00,,,0.00,Wunderground v.1.15,2013-08-07 09:39:00,
2013-08-07 05:45:00,66.5,64.7,29.82,South,175,2.0,3.0,94,0.00,,,0.00,Wunderground v.1.15,2013-08-07 09:45:00,
2013-08-07 05:50:00,66.5,64.7,29.82,South,175,1.0,1.0,94,0.00,,,0.00,Wunderground v.1.15,2013-08-07 09:50:00,
2013-08-07 05:55:00,66.4,64.6,29.82,South,175,0.0,1.0,94,0.00,,,0.00,Wunderground v.1.15,2013-08-07 09:55:00,
2013-08-07 06:00:00,66.3,64.5,29.82,South,175,1.0,1.0,94,0.00,,,0.00,Wunderground v.1.15,2013-08-07 10:00:00,
2013-08-07 06:06:00,66.3,64.5,29.82,South,175,1.0,4.0,94,0.00,,,0.00,Wunderground v.1.15,2013-08-07 10:06:00,
2013-08-07 06:11:00,66.2,64.7,29.82,South,175,2.0,2.0,95,0.00,,,0.00,Wunderground v.1.15,2013-08-07 10:11:00,
2013-08-07 06:17:00,66.1,64.6,29.82,South,175,1.0,2.0,95,0.00,,,0.00,Wunderground v.1.15,2013-08-07 10:17:00,
2013-08-07 06:23:00,66.0,64.5,29.82,South,175,0.0,1.0,95,0.00,,,0.00,Wunderground v.1.15,2013-08-07 10:23:00,
2013-08-07 06:28:00,66.1,64.6,29.82,South,175,1.0,3.0,95,0.00,,,0.00,Wunderground v.1.15,2013-08-07 10:28:00,
2013-08-07 06:33:00,66.1,64.6,29.82,South,175,1.0,2.0,95,0.00,,,0.00,Wunderground v.1.15,2013-08-07 10:33:00,
2013-08-07 06:39:00,66.3,64.8,29.82,South,175,2.0,5.0,95,0.00,,,0.00,Wunderground v.1.15,2013-08-07 10:39:00,
2013-08-07 06:45:00,66.3,64.8,29.82,South,175,3.0,4.0,95,0.00,,,0.00,Wunderground v.1.15,2013-08-07 10:45:00,
2013-08-07 06:50:00,66.4,64.9,29.82,South,175,3.0,3.0,95,0.00,,,0.00,Wunderground v.1.15,2013-08-07 10:50:00,
2013-08-07 06:55:00,66.4,64.9,29.82,South,175,3.0,3.0,95,0.00,,,0.00,Wunderground v.1.15,2013-08-07 10:55:00,
2013-08-07 07:00:00,66.4,64.9,29.83,South,175,2.0,2.0,95,0.00,,,0.00,Wunderground v.1.15,2013-08-07 11:00:00,
2013-08-07 07:06:00,66.4,64.9,29.83,South,175,2.0,4.0,95,0.00,,,0.00,Wunderground v.1.15,2013-08-07 11:06:00,
2013-08-07 07:12:00,66.5,65.0,29.83,South,175,3.0,3.0,95,0.00,,,0.00,Wunderground v.1.15,2013-08-07 11:12:00,
2013-08-07 07:17:00,66.6,65.1,29.83,South,175,3.0,5.0,95,0.00,,,0.00,Wunderground v.1.15,2013-08-07 11:17:00,
2013-08-07 07:22:00,66.7,65.2,29.84,South,175,4.0,4.0,95,0.00,,,0.00,Wunderground v.1.15,2013-08-07 11:22:00,
2013-08-07 07:27:00,66.7,65.2,29.84,South,175,3.0,4.0,95,0.00,,,0.00,Wunderground v.1.15,2013-08-07 11:27:00,
2013-08-07 07:33:00,66.8,65.3,29.84,South,175,1.0,2.0,95,0.00,,,0.00,Wunderground v.1.15,2013-08-07 11:33:00,
2013-08-07 07:38:00,66.8,65.6,29.85,South,175,0.0,3.0,96,0.00,,,0.00,Wunderground v.1.15,2013-08-07 11:38:00,
2013-08-07 07:44:00,66.9,65.7,29.87,NNW,329,3.0,11.0,96,0.00,,,0.00,Wunderground v.1.15,2013-08-07 11:44:00,
2013-08-07 07:49:00,66.6,65.1,29.87,NNW,336,6.0,11.0,95,0.00,,,0.00,Wunderground v.1.15,2013-08-07 11:49:00,
2013-08-07 07:54:00,66.1,64.3,29.88,NNW,328,7.0,8.0,94,0.00,,,0.00,Wunderground v.1.15,2013-08-07 11:54:00,
2013-08-07 07:59:00,66.1,64.0,29.88,NNW,335,7.0,8.0,93,0.00,,,0.00,Wunderground v.1.15,2013-08-07 11:59:00,
2013-08-07 08:05:00,66.2,63.8,29.87,NNE,12,6.0,8.0,92,0.00,,,0.00,Wunderground v.1.15,2013-08-07 12:05:00,
2013-08-07 08:10:00,66.3,63.6,29.87,North,355,5.0,8.0,91,0.00,,,0.00,Wunderground v.1.15,2013-08-07 12:10:00,
2013-08-07 08:15:00,66.3,63.0,29.86,North,355,3.0,5.0,89,0.00,,,0.00,Wunderground v.1.15,2013-08-07 12:15:00,
2013-08-07 08:20:00,66.3,63.0,29.86,North,355,2.0,5.0,89,0.00,,,0.00,Wunderground v.1.15,2013-08-07 12:20:00,
2013-08-07 08:26:00,66.4,63.1,29.85,North,355,2.0,2.0,89,0.00,,,0.00,Wunderground v.1.15,2013-08-07 12:26:00,
2013-08-07 08:31:00,66.4,63.1,29.85,North,355,1.0,2.0,89,0.00,,,0.00,Wunderground v.1.15,2013-08-07 12:31:00,
2013-08-07 08:37:00,66.7,63.0,29.86,North,355,1.0,2.0,88,0.00,,,0.00,Wunderground v.1.15,2013-08-07 12:37:00,
2013-08-07 08:42:00,67.1,63.4,29.85,North,355,1.0,1.0,88,0.00,,,0.00,Wunderground v.1.15,2013-08-07 12:42:00,
2013-08-07 08:47:00,67.4,63.4,29.85,North,355,0.0,1.0,87,0.00,,,0.00,Wunderground v.1.15,2013-08-07 12:47:00,
2013-08-07 08:52:00,67.5,63.2,29.84,North,355,0.0,0.0,86,0.00,,,0.00,Wunderground v.1.15,2013-08-07 12:52:00,
2013-08-07 08:58:00,67.8,63.5,29.85,North,355,0.0,2.0,86,0.00,,,0.00,Wunderground v.1.15,2013-08-07 12:58:00,
2013-08-07 09:03:00,68.4,63.7,29.85,North,355,1.0,2.0,85,0.00,,,0.00,Wunderground v.1.15,2013-08-07 13:03:00,
2013-08-07 09:08:00,68.5,63.5,29.86,North,355,1.0,3.0,84,0.00,,,0.00,Wunderground v.1.15,2013-08-07 13:08:00,
2013-08-07 09:13:00,68.7,63.7,29.86,North,355,2.0,4.0,84,0.00,,,0.00,Wunderground v.1.15,2013-08-07 13:13:00,
2013-08-07 09:19:00,68.8,63.8,29.86,North,355,2.0,5.0,84,0.00,,,0.00,Wunderground v.1.15,2013-08-07 13:19:00,
2013-08-07 09:25:00,68.6,63.6,29.85,North,355,2.0,4.0,84,0.00,,,0.00,Wunderground v.1.15,2013-08-07 13:25:00,
2013-08-07 09:30:00,68.7,63.7,29.85,North,355,3.0,4.0,84,0.00,,,0.00,Wunderground v.1.15,2013-08-07 13:30:00,
2013-08-07 09:36:00,69.0,63.6,29.85,North,355,2.0,3.0,83,0.00,,,0.00,Wunderground v.1.15,2013-08-07 13:36:00,
2013-08-07 09:42:00,69.3,63.6,29.85,North,355,2.0,2.0,82,0.00,,,0.00,Wunderground v.1.15,2013-08-07 13:42:00,
2013-08-07 09:48:00,69.7,64.0,29.85,North,355,2.0,3.0,82,0.00,,,0.00,Wunderground v.1.15,2013-08-07 13:48:00,
2013-08-07 09:54:00,70.1,64.0,29.85,NNW,345,1.0,3.0,81,0.00,,,0.00,Wunderground v.1.15,2013-08-07 13:54:00,
2013-08-07 10:00:00,70.1,63.6,29.86,WNW,295,3.0,5.0,80,0.00,,,0.00,Wunderground v.1.15,2013-08-07 14:00:00,
2013-08-07 10:05:00,70.3,63.5,29.86,West,265,4.0,5.0,79,0.00,,,0.00,Wunderground v.1.15,2013-08-07 14:05:00,
2013-08-07 10:11:00,70.4,63.9,29.86,SW,227,4.0,5.0,80,0.00,,,0.00,Wunderground v.1.15,2013-08-07 14:11:00,
2013-08-07 10:16:00,70.4,63.9,29.86,SSW,207,4.0,7.0,80,0.00,,,0.00,Wunderground v.1.15,2013-08-07 14:16:00,
2013-08-07 10:22:00,70.4,63.9,29.87,SSW,199,5.0,7.0,80,0.00,,,0.00,Wunderground v.1.15,2013-08-07 14:22:00,
2013-08-07 10:27:00,70.3,63.8,29.87,SW,224,6.0,8.0,80,0.00,,,0.00,Wunderground v.1.15,2013-08-07 14:27:00,
2013-08-07 10:33:00,70.3,64.2,29.88,SW,225,5.0,6.0,81,0.00,,,0.00,Wunderground v.1.15,2013-08-07 14:33:00,
2013-08-07 10:39:00,70.3,64.2,29.87,SW,215,4.0,6.0,81,0.00,,,0.00,Wunderground v.1.15,2013-08-07 14:39:00,
2013-08-07 10:44:00,70.1,64.7,29.86,SSW,213,4.0,5.0,83,0.00,,,0.00,Wunderground v.1.15,2013-08-07 14:44:00,
2013-08-07 10:50:00,69.7,64.6,29.86,SSW,205,5.0,7.0,84,0.00,,,0.01,Wunderground v.1.15,2013-08-07 14:50:00,
2013-08-07 10:55:00,69.4,64.7,29.86,SW,233,6.0,11.0,85,0.06,,,0.01,Wunderground v.1.15,2013-08-07 14:55:00,
2013-08-07 11:01:00,69.0,65.0,29.86,SW,231,7.0,7.0,87,0.06,,,0.02,Wunderground v.1.15,2013-08-07 15:01:00,
2013-08-07 11:06:00,68.6,64.9,29.85,SW,225,7.0,9.0,88,0.06,,,0.02,Wunderground v.1.15,2013-08-07 15:06:00,
2013-08-07 11:11:00,68.4,64.7,29.84,SSW,195,7.0,11.0,88,0.05,,,0.03,Wunderground v.1.15,2013-08-07 15:11:00,
2013-08-07 11:16:00,68.1,64.7,29.80,West,262,7.0,11.0,89,0.12,,,0.04,Wunderground v.1.15,2013-08-07 15:16:00,
2013-08-07 11:22:00,67.8,64.8,29.80,SSE,155,4.0,5.0,90,0.06,,,0.04,Wunderground v.1.15,2013-08-07 15:22:00,
2013-08-07 11:27:00,67.9,64.9,29.80,NW,319,2.0,7.0,90,0.04,,,0.04,Wunderground v.1.15,2013-08-07 15:27:00,
2013-08-07 11:32:00,68.1,65.1,29.80,SE,142,2.0,3.0,90,0.00,,,0.04,Wunderground v.1.15,2013-08-07 15:32:00,
2013-08-07 11:38:00,68.2,65.2,29.80,SE,144,2.0,4.0,90,0.00,,,0.04,Wunderground v.1.15,2013-08-07 15:38:00,
2013-08-07 11:43:00,68.1,65.1,29.81,SSW,200,4.0,7.0,90,0.00,,,0.04,Wunderground v.1.15,2013-08-07 15:43:00,
2013-08-07 11:48:00,68.1,65.1,29.80,SSW,200,5.0,7.0,90,0.00,,,0.04,Wunderground v.1.15,2013-08-07 15:48:00,
2013-08-07 11:54:00,68.2,65.2,29.81,SW,231,4.0,6.0,90,0.00,,,0.04,Wunderground v.1.15,2013-08-07 15:54:00,
2013-08-07 11:59:00,68.4,65.4,29.81,SSW,210,4.0,6.0,90,0.00,,,0.04,Wunderground v.1.15,2013-08-07 15:59:00,
2013-08-07 12:04:00,68.7,66.0,29.81,WSW,243,3.0,6.0,91,0.00,,,0.04,Wunderground v.1.15,2013-08-07 16:04:00,
2013-08-07 12:10:00,69.0,65.9,29.81,SW,232,4.0,4.0,90,0.00,,,0.04,Wunderground v.1.15,2013-08-07 16:10:00,
2013-08-07 12:15:00,69.5,66.4,29.82,SW,221,4.0,6.0,90,0.00,,,0.04,Wunderground v.1.15,2013-08-07 16:15:00,
2013-08-07 12:21:00,69.9,66.5,29.81,SW,219,3.0,3.0,89,0.00,,,0.04,Wunderground v.1.15,2013-08-07 16:21:00,
2013-08-07 12:26:00,70.4,67.0,29.81,South,183,3.0,6.0,89,0.00,,,0.04,Wunderground v.1.15,2013-08-07 16:26:00,
2013-08-07 12:32:00,71.0,67.3,29.81,SSW,193,5.0,8.0,88,0.00,,,0.04,Wunderground v.1.15,2013-08-07 16:32:00,
2013-08-07 12:37:00,71.1,66.7,29.81,SSW,205,5.0,8.0,86,0.00,,,0.04,Wunderground v.1.15,2013-08-07 16:37:00,
2013-08-07 12:42:00,71.6,67.2,29.81,South,178,6.0,8.0,86,0.00,,,0.04,Wunderground v.1.15,2013-08-07 16:42:00,
2013-08-07 12:48:00,72.6,67.5,29.81,SSW,196,6.0,8.0,84,0.00,,,0.04,Wunderground v.1.15,2013-08-07 16:48:00,
2013-08-07 12:53:00,73.1,67.3,29.80,SSW,202,4.0,6.0,82,0.00,,,0.04,Wunderground v.1.15,2013-08-07 16:53:00,
2013-08-07 12:59:00,73.4,66.9,29.80,SSW,198,3.0,6.0,80,0.00,,,0.04,Wunderground v.1.15,2013-08-07 16:59:00,
2013-08-07 13:04:00,74.1,67.2,29.80,South,188,3.0,5.0,79,0.00,,,0.04,Wunderground v.1.15,2013-08-07 17:04:00,
2013-08-07 13:10:00,74.8,67.1,29.79,SSW,210,5.0,5.0,77,0.00,,,0.04,Wunderground v.1.15,2013-08-07 17:10:00,
2013-08-07 13:16:00,75.0,67.3,29.79,SSW,200,5.0,7.0,77,0.00,,,0.04,Wunderground v.1.15,2013-08-07 17:16:00,
2013-08-07 13:22:00,74.8,67.1,29.79,South,169,5.0,8.0,77,0.00,,,0.04,Wunderground v.1.15,2013-08-07 17:22:00,
2013-08-07 13:27:00,75.0,67.3,29.79,SSW,194,6.0,8.0,77,0.00,,,0.04,Wunderground v.1.15,2013-08-07 17:27:00,
2013-08-07 13:32:00,75.7,67.2,29.79,SW,217,6.0,12.0,75,0.00,,,0.04,Wunderground v.1.15,2013-08-07 17:32:00,
2013-08-07 13:37:00,75.8,66.5,29.79,SW,226,7.0,12.0,73,0.00,,,0.04,Wunderground v.1.15,2013-08-07 17:37:00,
2013-08-07 13:43:00,75.9,66.6,29.80,WSW,238,7.0,7.0,73,0.00,,,0.04,Wunderground v.1.15,2013-08-07 17:43:00,
2013-08-07 13:48:00,76.1,66.0,29.80,SW,228,7.0,14.0,71,0.00,,,0.04,Wunderground v.1.15,2013-08-07 17:48:00,
2013-08-07 13:54:00,76.5,66.0,29.81,SSW,207,7.0,8.0,70,0.00,,,0.04,Wunderground v.1.15,2013-08-07 17:54:00,
2013-08-07 13:59:00,76.7,66.6,29.81,SW,229,7.0,8.0,71,0.00,,,0.04,Wunderground v.1.15,2013-08-07 17:59:00,
2013-08-07 14:05:00,76.6,66.9,29.81,SSE,162,9.0,15.0,72,0.00,,,0.04,Wunderground v.1.15,2013-08-07 18:05:00,
2013-08-07 14:10:00,76.6,67.3,29.81,SW,222,8.0,15.0,73,0.00,,,0.04,Wunderground v.1.15,2013-08-07 18:10:00,
2013-08-07 14:16:00,76.4,66.7,29.81,SW,221,7.0,13.0,72,0.00,,,0.04,Wunderground v.1.15,2013-08-07 18:16:00,
2013-08-07 14:22:00,75.8,66.9,29.81,SSW,207,9.0,9.0,74,0.00,,,0.04,Wunderground v.1.15,2013-08-07 18:22:00,
2013-08-07 14:27:00,75.7,66.8,29.81,SSW,198,8.0,9.0,74,0.00,,,0.04,Wunderground v.1.15,2013-08-07 18:27:00,
2013-08-07 14:32:00,75.6,67.1,29.82,WSW,251,7.0,7.0,75,0.00,,,0.04,Wunderground v.1.15,2013-08-07 18:32:00,
2013-08-07 14:38:00,75.6,67.5,29.82,SSW,205,6.0,7.0,76,0.00,,,0.04,Wunderground v.1.15,2013-08-07 18:38:00,
2013-08-07 14:43:00,75.6,67.5,29.82,SSW,202,5.0,7.0,76,0.00,,,0.04,Wunderground v.1.15,2013-08-07 18:43:00,
2013-08-07 14:49:00,75.1,67.8,29.82,SSW,213,6.0,8.0,78,0.00,,,0.04,Wunderground v.1.15,2013-08-07 18:49:00,
2013-08-07 14:54:00,74.6,68.0,29.82,SSW,213,5.0,6.0,80,0.00,,,0.04,Wunderground v.1.15,2013-08-07 18:54:00,
2013-08-07 14:59:00,74.3,67.7,29.82,SW,235,4.0,6.0,80,0.00,,,0.04,Wunderground v.1.15,2013-08-07 18:59:00,
2013-08-07 15:05:00,74.1,67.9,29.82,SW,225,5.0,7.0,81,0.00,,,0.04,Wunderground v.1.15,2013-08-07 19:05:00,
2013-08-07 15:10:00,74.3,68.1,29.81,SSW,211,5.0,5.0,81,0.00,,,0.04,Wunderground v.1.15,2013-08-07 19:10:00,
2013-08-07 15:15:00,74.6,68.4,29.81,SSW,201,5.0,6.0,81,0.00,,,0.04,Wunderground v.1.15,2013-08-07 19:15:00,
2013-08-07 15:21:00,74.9,68.3,29.81,SW,223,5.0,6.0,80,0.00,,,0.04,Wunderground v.1.15,2013-08-07 19:21:00,
2013-08-07 15:26:00,75.5,68.9,29.81,SW,236,4.0,6.0,80,0.00,,,0.04,Wunderground v.1.15,2013-08-07 19:26:00,
2013-08-07 15:32:00,75.9,68.9,29.81,SW,232,3.0,4.0,79,0.00,,,0.04,Wunderground v.1.15,2013-08-07 19:32:00,
2013-08-07 15:38:00,76.6,68.8,29.81,SSW,213,4.0,6.0,77,0.00,,,0.04,Wunderground v.1.15,2013-08-07 19:38:00,
2013-08-07 15:43:00,77.4,69.2,29.81,SW,236,5.0,7.0,76,0.00,,,0.04,Wunderground v.1.15,2013-08-07 19:43:00,
2013-08-07 15:48:00,77.5,69.3,29.81,SW,216,5.0,7.0,76,0.00,,,0.04,Wunderground v.1.15,2013-08-07 19:48:00,
2013-08-07 15:54:00,77.6,69.4,29.81,SW,221,5.0,5.0,76,0.00,,,0.04,Wunderground v.1.15,2013-08-07 19:54:00,
2013-08-07 16:00:00,78.7,68.9,29.81,SSE,159,4.0,4.0,72,0.00,,,0.04,Wunderground v.1.15,2013-08-07 20:00:00,
2013-08-07 16:06:00,78.7,68.1,29.80,South,179,5.0,8.0,70,0.00,,,0.04,Wunderground v.1.15,2013-08-07 20:06:00,
2013-08-07 16:11:00,79.3,69.1,29.80,WSW,254,4.0,5.0,71,0.00,,,0.04,Wunderground v.1.15,2013-08-07 20:11:00,
2013-08-07 16:16:00,80.1,69.0,29.80,WSW,244,3.0,6.0,69,0.00,,,0.04,Wunderground v.1.15,2013-08-07 20:16:00,
2013-08-07 16:21:00,80.6,68.6,29.80,SSW,205,4.0,4.0,67,0.00,,,0.04,Wunderground v.1.15,2013-08-07 20:21:00,
2013-08-07 16:27:00,81.6,68.7,29.80,SW,214,3.0,4.0,65,0.00,,,0.04,Wunderground v.1.15,2013-08-07 20:27:00,
2013-08-07 16:32:00,82.1,69.6,29.80,SW,217,3.0,5.0,66,0.00,,,0.04,Wunderground v.1.15,2013-08-07 20:32:00,
2013-08-07 16:37:00,81.2,68.8,29.80,SW,215,3.0,5.0,66,0.00,,,0.04,Wunderground v.1.15,2013-08-07 20:37:00,
2013-08-07 16:43:00,81.6,70.0,29.80,SSW,212,4.0,7.0,68,0.00,,,0.04,Wunderground v.1.15,2013-08-07 20:43:00,
2013-08-07 16:48:00,81.5,69.9,29.80,SW,216,4.0,7.0,68,0.00,,,0.04,Wunderground v.1.15,2013-08-07 20:48:00,
2013-08-07 16:54:00,81.1,70.0,29.80,SSW,195,5.0,8.0,69,0.00,,,0.04,Wunderground v.1.15,2013-08-07 20:54:00,
2013-08-07 16:59:00,81.0,69.9,29.80,SSW,198,6.0,8.0,69,0.00,,,0.04,Wunderground v.1.15,2013-08-07 20:59:00,
2013-08-07 17:04:00,80.8,70.1,29.80,SSW,206,5.0,6.0,70,0.00,,,0.04,Wunderground v.1.15,2013-08-07 21:04:00,
2013-08-07 17:09:00,80.6,69.9,29.80,SW,225,5.0,7.0,70,0.00,,,0.04,Wunderground v.1.15,2013-08-07 21:09:00,
2013-08-07 17:14:00,80.2,70.8,29.80,SW,225,5.0,6.0,73,0.00,,,0.05,Wunderground v.1.15,2013-08-07 21:14:00,
2013-08-07 17:20:00,79.5,71.3,29.80,WSW,239,3.0,5.0,76,0.13,,,0.06,Wunderground v.1.15,2013-08-07 21:20:00,
2013-08-07 17:25:00,79.3,72.6,29.80,WSW,240,3.0,5.0,80,0.06,,,0.06,Wunderground v.1.15,2013-08-07 21:25:00,
2013-08-07 17:31:00,79.7,72.2,29.79,WSW,240,3.0,3.0,78,0.04,,,0.06,Wunderground v.1.15,2013-08-07 21:31:00,
2013-08-07 17:36:00,80.7,72.4,29.80,WSW,240,2.0,3.0,76,0.00,,,0.06,Wunderground v.1.15,2013-08-07 21:36:00,
2013-08-07 17:41:00,81.5,72.4,29.79,SW,233,2.0,6.0,74,0.00,,,0.06,Wunderground v.1.15,2013-08-07 21:41:00,
2013-08-07 17:47:00,81.5,70.3,29.79,SW,221,4.0,10.0,69,0.00,,,0.06,Wunderground v.1.15,2013-08-07 21:47:00,
2013-08-07 17:52:00,81.9,71.2,29.79,West,270,5.0,7.0,70,0.00,,,0.06,Wunderground v.1.15,2013-08-07 21:52:00,
2013-08-07 17:57:00,82.0,71.2,29.79,SSW,200,5.0,8.0,70,0.00,,,0.06,Wunderground v.1.15,2013-08-07 21:57:00,
2013-08-07 18:03:00,81.9,70.7,29.79,SW,215,7.0,13.0,69,0.00,,,0.06,Wunderground v.1.15,2013-08-07 22:03:00,
2013-08-07 18:09:00,81.8,70.6,29.79,SSW,196,8.0,13.0,69,0.00,,,0.06,Wunderground v.1.15,2013-08-07 22:09:00,
2013-08-07 18:14:00,82.3,70.7,29.79,SSW,213,8.0,10.0,68,0.00,,,0.06,Wunderground v.1.15,2013-08-07 22:14:00,
2013-08-07 18:19:00,82.0,70.8,29.78,SW,215,8.0,13.0,69,0.00,,,0.06,Wunderground v.1.15,2013-08-07 22:19:00,
2013-08-07 18:24:00,82.1,70.9,29.79,SW,217,8.0,12.0,69,0.00,,,0.06,Wunderground v.1.15,2013-08-07 22:24:00,
2013-08-07 18:30:00,82.1,70.5,29.78,SW,228,9.0,9.0,68,0.00,,,0.06,Wunderground v.1.15,2013-08-07 22:30:00,
2013-08-07 18:35:00,81.8,70.2,29.79,SW,216,9.0,9.0,68,0.00,,,0.06,Wunderground v.1.15,2013-08-07 22:35:00,
2013-08-07 18:40:00,81.6,70.4,29.79,SSW,207,7.0,9.0,69,0.00,,,0.06,Wunderground v.1.15,2013-08-07 22:40:00,
2013-08-07 18:46:00,81.8,70.6,29.78,SSW,200,7.0,10.0,69,0.00,,,0.06,Wunderground v.1.15,2013-08-07 22:46:00,
2013-08-07 18:51:00,82.2,71.0,29.78,SW,221,6.0,7.0,69,0.00,,,0.06,Wunderground v.1.15,2013-08-07 22:51:00,
2013-08-07 18:57:00,82.1,70.9,29.78,SW,223,4.0,7.0,69,0.00,,,0.06,Wunderground v.1.15,2013-08-07 22:57:00,
2013-08-07 19:02:00,81.9,70.7,29.78,SW,219,5.0,9.0,69,0.00,,,0.06,Wunderground v.1.15,2013-08-07 23:02:00,
2013-08-07 19:07:00,81.6,70.9,29.79,West,264,5.0,9.0,70,0.00,,,0.06,Wunderground v.1.15,2013-08-07 23:07:00,
2013-08-07 19:12:00,81.3,71.0,29.79,WSW,250,6.0,8.0,71,0.00,,,0.06,Wunderground v.1.15,2013-08-07 23:12:00,
2013-08-07 19:18:00,81.2,71.3,29.79,SSW,205,5.0,8.0,72,0.00,,,0.06,Wunderground v.1.15,2013-08-07 23:18:00,
2013-08-07 19:24:00,81.0,71.5,29.79,SW,218,4.0,6.0,73,0.00,,,0.06,Wunderground v.1.15,2013-08-07 23:24:00,
2013-08-07 19:29:00,80.7,71.6,29.79,WSW,238,4.0,6.0,74,0.00,,,0.06,Wunderground v.1.15,2013-08-07 23:29:00,
2013-08-07 19:35:00,80.6,71.5,29.79,WSW,254,5.0,8.0,74,0.00,,,0.06,Wunderground v.1.15,2013-08-07 23:35:00,
2013-08-07 19:40:00,80.5,71.8,29.79,SSW,203,5.0,6.0,75,0.00,,,0.06,Wunderground v.1.15,2013-08-07 23:40:00,
2013-08-07 19:45:00,80.6,71.9,29.79,SW,229,5.0,7.0,75,0.00,,,0.06,Wunderground v.1.15,2013-08-07 23:45:00,
2013-08-07 19:50:00,80.4,71.7,29.79,SW,219,5.0,7.0,75,0.00,,,0.06,Wunderground v.1.15,2013-08-07 23:50:00,
2013-08-07 19:56:00,80.1,71.5,29.79,WSW,242,5.0,7.0,75,0.00,,,0.06,Wunderground v.1.15,2013-08-07 23:56:00,
2013-08-07 20:01:00,80.0,71.4,29.80,SSW,200,5.0,6.0,75,0.00,,,0.06,Wunderground v.1.15,2013-08-08 00:01:00,
2013-08-07 20:07:00,79.8,71.6,29.80,SSW,202,5.0,7.0,76,0.00,,,0.06,Wunderground v.1.15,2013-08-08 00:07:00,
2013-08-07 20:12:00,79.6,71.8,29.80,SSW,213,5.0,6.0,77,0.00,,,0.06,Wunderground v.1.15,2013-08-08 00:12:00,
2013-08-07 20:17:00,79.4,71.6,29.80,SSW,209,6.0,11.0,77,0.00,,,0.06,Wunderground v.1.15,2013-08-08 00:17:00,
2013-08-07 20:22:00,79.2,71.7,29.80,South,180,6.0,8.0,78,0.00,,,0.06,Wunderground v.1.15,2013-08-08 00:22:00,
2013-08-07 20:28:00,78.9,71.5,29.80,SW,221,5.0,8.0,78,0.00,,,0.06,Wunderground v.1.15,2013-08-08 00:28:00,
2013-08-07 20:33:00,78.7,71.6,29.80,SW,225,5.0,7.0,79,0.00,,,0.06,Wunderground v.1.15,2013-08-08 00:33:00,
2013-08-07 20:38:00,78.5,71.4,29.80,SW,232,4.0,7.0,79,0.00,,,0.06,Wunderground v.1.15,2013-08-08 00:38:00,
2013-08-07 20:43:00,78.3,71.6,29.80,SW,229,4.0,4.0,80,0.00,,,0.06,Wunderground v.1.15,2013-08-08 00:43:00,
2013-08-07 20:49:00,78.1,71.4,29.81,SW,229,3.0,4.0,80,0.00,,,0.06,Wunderground v.1.15,2013-08-08 00:49:00,
2013-08-07 20:54:00,78.0,71.7,29.81,SW,229,3.0,4.0,81,0.00,,,0.06,Wunderground v.1.15,2013-08-08 00:54:00,
2013-08-07 20:59:00,77.8,71.5,29.81,SW,228,3.0,6.0,81,0.00,,,0.06,Wunderground v.1.15,2013-08-08 00:59:00,
2013-08-07 21:04:00,77.7,71.8,29.80,SSW,213,4.0,7.0,82,0.00,,,0.06,Wunderground v.1.15,2013-08-08 01:04:00,
2013-08-07 21:10:00,77.4,71.5,29.80,SW,214,4.0,4.0,82,0.00,,,0.06,Wunderground v.1.15,2013-08-08 01:10:00,
2013-08-07 21:15:00,77.3,71.7,29.80,SSW,213,4.0,6.0,83,0.00,,,0.06,Wunderground v.1.15,2013-08-08 01:15:00,
2013-08-07 21:21:00,77.0,71.4,29.80,SW,217,5.0,5.0,83,0.00,,,0.06,Wunderground v.1.15,2013-08-08 01:21:00,
2013-08-07 21:26:00,76.8,71.6,29.81,SW,217,4.0,5.0,84,0.00,,,0.06,Wunderground v.1.15,2013-08-08 01:26:00,
2013-08-07 21:32:00,76.6,71.4,29.81,SW,217,2.0,2.0,84,0.00,,,0.06,Wunderground v.1.15,2013-08-08 01:32:00,
2013-08-07 21:37:00,76.4,71.6,29.81,SW,217,2.0,3.0,85,0.00,,,0.06,Wunderground v.1.15,2013-08-08 01:37:00,
2013-08-07 21:42:00,76.3,71.5,29.82,SW,217,2.0,2.0,85,0.00,,,0.06,Wunderground v.1.15,2013-08-08 01:42:00,
2013-08-07 21:48:00,76.3,71.8,29.82,SW,217,1.0,3.0,86,0.00,,,0.06,Wunderground v.1.15,2013-08-08 01:48:00,
2013-08-07 21:54:00,76.2,71.7,29.83,SW,217,2.0,3.0,86,0.00,,,0.06,Wunderground v.1.15,2013-08-08 01:54:00,
2013-08-07 21:59:00,76.1,71.6,29.83,SW,217,1.0,3.0,86,0.00,,,0.06,Wunderground v.1.15,2013-08-08 01:59:00,
2013-08-07 22:05:00,75.9,71.4,29.83,SW,217,1.0,2.0,86,0.00,,,0.06,Wunderground v.1.15,2013-08-08 02:05:00,
2013-08-07 22:10:00,75.7,71.6,29.83,SW,217,1.0,2.0,87,0.00,,,0.06,Wunderground v.1.15,2013-08-08 02:10:00,
2013-08-07 22:15:00,75.5,71.4,29.84,SW,217,1.0,2.0,87,0.00,,,0.06,Wunderground v.1.15,2013-08-08 02:15:00,
2013-08-07 22:20:00,75.7,71.6,29.84,SW,217,2.0,2.0,87,0.00,,,0.06,Wunderground v.1.15,2013-08-08 02:20:00,
2013-08-07 22:25:00,76.2,72.0,29.84,WSW,248,2.0,5.0,87,0.00,,,0.06,Wunderground v.1.15,2013-08-08 02:25:00,
2013-08-07 22:31:00,76.4,71.9,29.84,WSW,242,3.0,3.0,86,0.00,,,0.06,Wunderground v.1.15,2013-08-08 02:31:00,
2013-08-07 22:36:00,76.5,72.0,29.85,WSW,242,3.0,4.0,86,0.00,,,0.06,Wunderground v.1.15,2013-08-08 02:36:00,
2013-08-07 22:42:00,76.6,72.1,29.85,WSW,242,3.0,3.0,86,0.00,,,0.06,Wunderground v.1.15,2013-08-08 02:42:00,
2013-08-07 22:47:00,76.7,72.2,29.85,WSW,242,2.0,5.0,86,0.00,,,0.06,Wunderground v.1.15,2013-08-08 02:47:00,
2013-08-07 22:53:00,76.6,72.1,29.85,WSW,248,3.0,4.0,86,0.00,,,0.06,Wunderground v.1.15,2013-08-08 02:53:00,
2013-08-07 22:58:00,76.5,72.0,29.85,WSW,248,3.0,4.0,86,0.00,,,0.06,Wunderground v.1.15,2013-08-08 02:58:00,
2013-08-07 23:03:00,76.3,72.1,29.86,WSW,248,2.0,3.0,87,0.00,,,0.06,Wunderground v.1.15,2013-08-08 03:03:00,
2013-08-07 23:09:00,76.1,71.9,29.85,WSW,248,2.0,3.0,87,0.00,,,0.06,Wunderground v.1.15,2013-08-08 03:09:00,
2013-08-07 23:14:00,76.0,71.8,29.85,WSW,248,1.0,2.0,87,0.00,,,0.06,Wunderground v.1.15,2013-08-08 03:14:00,
2013-08-07 23:19:00,75.9,71.8,29.85,WSW,250,1.0,2.0,87,0.00,,,0.06,Wunderground v.1.15,2013-08-08 03:19:00,
2013-08-07 23:24:00,75.9,71.8,29.85,West,261,2.0,6.0,87,0.00,,,0.06,Wunderground v.1.15,2013-08-08 03:24:00,
2013-08-07 23:30:00,75.8,71.3,29.85,West,267,4.0,5.0,86,0.00,,,0.06,Wunderground v.1.15,2013-08-08 03:30:00,
2013-08-07 23:35:00,75.7,71.2,29.85,West,267,4.0,5.0,86,0.00,,,0.06,Wunderground v.1.15,2013-08-08 03:35:00,
2013-08-07 23:40:00,75.6,71.1,29.85,West,267,2.0,2.0,86,0.00,,,0.06,Wunderground v.1.15,2013-08-08 03:40:00,
2013-08-07 23:46:00,75.4,70.9,29.85,West,267,1.0,2.0,86,0.00,,,0.06,Wunderground v.1.15,2013-08-08 03:46:00,
2013-08-07 23:51:00,75.1,70.6,29.85,West,267,1.0,1.0,86,0.00,,,0.06,Wunderground v.1.15,2013-08-08 03:51:00,
2013-08-07 23:57:00,74.8,70.7,29.85,West,267,1.0,3.0,87,0.00,,,0.00,Wunderground v.1.15,2013-08-08 03:57:00,